[Date Prev][Date Next][Thread Prev][Thread Next] - [Date Index][Thread Index][Author Index]

2 Line ISS Keps 12-9



ISS
1 25544U 98067A   03343.20303265  .00023669  00000-0  23657-3 0  8726
2 25544  51.6289 217.1132 0006259 224.0254 231.0253 15.65457379288366


----
Via the sarex mailing list at AMSAT.ORG courtesy of AMSAT-NA.
To unsubscribe, send "unsubscribe sarex" to Majordomo@amsat.org



AMSAT Top AMSAT Home